[[{"header":{"parameterUnit":"m.s-1","parameterCategory":1,"la1":30.2992,"la2":30.254,"lo1":-89.0895,"lo2":-89.0443,"dy":0.0025,"dx":0.0025,"nx":19,"ny":19,"refTime":"2026-05-16T03:00:00:Z","depth":0,"parameterNumber":2,"parameterNumberName":"U-component_of_WINDS"},"data":[0,0,0,-1.8364,-1.8363,-1.8321,-1.8321,-1.8283,-1.8283,0,0,0,0,0,0,0,0,0,0,0,-1.8386,-1.8386,-1.8364,-1.8363,-1.8321,-1.8321,-1.8283,-1.8283,0,0,0,0,0,0,0,0,0,0,0,-1.8386,-1.8386,-1.8386,-1.8363,-1.8321,-1.8321,-1.8283,-1.8309,0,0,0,0,0,0,0,0,0,0,-1.8347,-1.8377,-1.8386,-1.8386,-1.8363,-1.8321,-1.8321,-1.831,-1.8307,-1.8309,0,-1.8314,0,-1.8298,-1.8281,-1.8281,0,0,0,-1.8355,-1.838,-1.8359,-1.8386,-1.8362,-1.8321,-1.8338,-1.8308,-1.8305,-1.8306,-1.8313,-1.8311,-1.8297,-1.8281,-1.8281,-1.832,-1.8321,0,0,-1.8357,-1.8384,-1.8362,-1.8358,-1.8366,-1.8339,-1.8336,-1.8306,-1.8315,-1.8313,-1.831,-1.8297,-1.8281,-1.8281,-1.832,-1.8321,0,0,0,-1.8369,-1.8386,-1.8366,-1.836,-1.8352,-1.8338,-1.8335,-1.8317,-1.8308,-1.8309,-1.8296,-1.8281,-1.8281,-1.8319,-1.832,-1.8374,0,0,0,-1.837,-1.8392,-1.8367,-1.8383,-1.8352,-1.8334,-1.8347,-1.831,-1.8306,-1.8296,-1.8281,-1.828,-1.8319,-1.832,-1.8371,-1.8394,0,0,0,-1.8385,-1.8394,-1.8392,-1.8384,-1.8367,-1.8334,-1.8323,-1.8309,-1.8298,-1.8281,-1.828,-1.8318,-1.8319,-1.8369,-1.839,-1.8413,0,0,0,-1.8408,-1.8439,-1.8393,-1.8422,-1.8368,-1.8368,-1.8323,-1.8321,-1.8313,-1.8281,-1.8319,-1.832,-1.8368,-1.8388,-1.8411,-1.8437,-1.8451,0,0,-1.8461,-1.8446,-1.8461,-1.8419,-1.8434,-1.8372,-1.8394,-1.8361,-1.8334,-1.8326,-1.8327,-1.8372,-1.839,-1.8413,-1.8519,-1.853,0,0,0,-1.8486,-1.8497,-1.8496,-1.849,-1.8467,-1.8448,-1.8409,-1.8397,-1.8389,-1.8336,-1.8386,-1.8396,-1.8408,-1.8419,-1.8429,-1.8438,-1.8327,-1.8326,-1.8326,-1.8597,-1.8564,-1.8587,-1.8549,-1.8544,-1.8505,-1.8497,-1.8474,-1.844,-1.8453,-1.845,-1.8518,-1.8533,-1.854,-1.855,-1.8461,-1.8462,-1.8462,-1.8462,-1.8671,-1.8682,-1.8639,-1.8645,-1.861,-1.8614,-1.8579,-1.8555,-1.8554,-1.8517,-1.8526,-1.8489,-1.8553,-1.856,-1.8466,-1.8465,-1.8464,-1.8464,-1.8464,-1.874,-1.8739,-1.8726,-1.8715,-1.8711,-1.8672,-1.8674,-1.8641,-1.861,-1.8619,-1.8613,-1.8612,-1.8607,-1.8619,-1.8619,-1.8619,-1.8619,-1.862,-1.862,-1.8816,-1.8799,-1.8806,-1.8786,-1.8779,-1.8765,-1.8728,-1.872,-1.8703,-1.8679,-1.8678,-1.8644,-1.8566,-1.8547,-1.8623,-1.8623,-1.8622,-1.8622,-1.8622,-1.8903,-1.8879,-1.8889,-1.8882,-1.8857,-1.8856,-1.8815,-1.8802,-1.8791,-1.8793,-1.8757,-1.8705,-1.8686,-1.8679,-1.8663,-1.8764,-1.8764,-1.8764,-1.8764,-1.8961,-1.8949,-1.8953,-1.8945,-1.8933,-1.8898,-1.8911,-1.8883,-1.885,-1.8841,-1.8822,-1.8798,-1.8792,-1.8777,-1.8767,-1.8751,-1.8873,-1.8873,-1.8873,-1.9013,-1.8999,-1.9016,-1.8985,-1.8963,-1.8945,-1.8956,-1.8949,-1.8906,-1.8877,-1.8833,-1.8829,-1.879,-1.8779,-1.8748,-1.8734,-1.8704,0,0]},{"header":{"parameterUnit":"m.s-1","parameterCategory":1,"la1":30.2992,"la2":30.254,"lo1":-89.0895,"lo2":-89.0443,"dy":0.0025,"dx":0.0025,"nx":19,"ny":19,"refTime":"2026-05-16T03:00:00:Z","depth":0,"parameterNumber":3,"parameterNumberName":"V-component_of_WINDS"},"data":[0,0,0,4.1159,4.1158,4.1103,4.1102,4.1033,4.1033,0,0,0,0,0,0,0,0,0,0,0,4.1179,4.1179,4.116,4.1158,4.1103,4.1102,4.1033,4.1033,0,0,0,0,0,0,0,0,0,0,0,4.1179,4.1179,4.1179,4.1158,4.1103,4.1102,4.1033,4.1074,0,0,0,0,0,0,0,0,0,0,4.1128,4.115,4.1179,4.1179,4.1158,4.1103,4.1102,4.1076,4.1072,4.106,0,4.1052,0,4.1042,4.1028,4.1028,0,0,0,4.1155,4.1153,4.1136,4.1179,4.1157,4.1103,4.1127,4.1074,4.1069,4.1054,4.1051,4.1049,4.1041,4.1028,4.1028,4.0978,4.0978,0,0,4.1158,4.117,4.1139,4.1133,4.1144,4.1129,4.1125,4.107,4.1067,4.1051,4.1047,4.1039,4.1027,4.1027,4.0978,4.0978,0,0,0,4.1169,4.1172,4.1156,4.1136,4.1126,4.1127,4.1123,4.107,4.1064,4.1046,4.1039,4.1027,4.1026,4.0978,4.0978,4.0987,0,0,0,4.1171,4.1179,4.1158,4.1164,4.1127,4.1097,4.1124,4.1067,4.1061,4.1039,4.1027,4.1026,4.0978,4.0978,4.0987,4.0988,0,0,0,4.1182,4.118,4.1174,4.1165,4.1142,4.1098,4.1089,4.1066,4.1056,4.1028,4.1026,4.0978,4.0978,4.0986,4.0988,4.0979,0,0,0,4.1196,4.118,4.1174,4.1153,4.1143,4.1105,4.1089,4.1059,4.1036,4.1027,4.0978,4.0978,4.0986,4.0988,4.0979,4.0974,4.0974,0,0,4.1182,4.1179,4.1166,4.1159,4.1126,4.1112,4.108,4.1045,4.103,4.0995,4.0994,4.0987,4.0988,4.0979,4.0965,4.0965,0,0,0,4.1166,4.1156,4.1145,4.1125,4.1101,4.108,4.105,4.1038,4.1009,4.1016,4.0981,4.0981,4.0975,4.0972,4.0972,4.0966,4.0977,4.0977,4.0977,4.1162,4.1147,4.1125,4.1103,4.1084,4.1055,4.1037,4.1016,4.1003,4.0995,4.0984,4.0978,4.0975,4.0974,4.0969,4.098,4.0981,4.0981,4.0981,4.1142,4.1126,4.1113,4.1087,4.107,4.1047,4.1019,4.1011,4.0986,4.0984,4.0978,4.0977,4.0974,4.0969,4.0981,4.0981,4.0981,4.0981,4.0981,4.1138,4.1128,4.1115,4.1087,4.1066,4.1044,4.1022,4.1006,4.0991,4.0986,4.0973,4.0973,4.0971,4.0981,4.0981,4.0981,4.0981,4.0981,4.0981,4.1138,4.1124,4.1109,4.1084,4.107,4.105,4.1022,4.1008,4.0987,4.0978,4.0977,4.0966,4.0978,4.0981,4.098,4.0981,4.0981,4.0981,4.0981,4.1122,4.1124,4.11,4.1087,4.1057,4.1038,4.102,4.0992,4.0978,4.0967,4.0958,4.0969,4.0963,4.0964,4.0966,4.0962,4.0962,4.0962,4.0962,4.1119,4.1116,4.1089,4.1069,4.1047,4.103,4.1002,4.0981,4.0958,4.0949,4.0947,4.0949,4.095,4.0944,4.0944,4.0947,4.0937,4.0937,4.0937,4.1108,4.1103,4.1083,4.1064,4.104,4.102,4.0994,4.097,4.0945,4.0936,4.094,4.0942,4.0945,4.0947,4.0937,4.0938,4.0942,0,0]}]]